Flag for U.S.A. Weather past 2 weeks in Wilmington, North Carolina, U.S.A.

Now
68 °F

Sunny.


Feels Like: 68 °F
Forecast: 65 / 74 °F
Wind: 8 mph from Southwest

Location: New Hanover International Airport

Current Time: Mar 26, 2015 at 7:59:02 PM

Latest Report: Mar 26, 2015 at 6:53 PM


Visibility: 10 mi

Pressure: 29.81 "Hg

Humidity: 73%

Dew point: 59 °F

Location of WilmingtonLocation

Historic Weather in Wilmington — Graph

°F

Wilmington temperature yesterday

Maximum temperature yesterday: 73 °F (at 3:53 PM)
Minimum temperature yesterday: 47 °F (at 6:53 AM)
Average temperature yesterday: 61 °F

Past Weeks' High & Low Weather Summary

 TemperatureHumidityPressure
High82 °F (Mar 17, 2:53 PM)97% (Mar 14, 11:53 AM)30.52 "Hg (Mar 14, 11:53 AM)
Low41 °F (Mar 13, 4:53 AM)19% (Mar 17, 5:53 PM)29.71 "Hg (Mar 17, 3:53 PM)
Average58 °F70%30.12 "Hg
* Reported Mar 11 6:53 PM — Mar 26 6:53 PM, Wilmington, Weather by CustomWeather, © 2015

Note: Actual official high and low records may vary slightly from our data, if they occured in-between our weather recording intervals... More about our weather records

Advertising

Wilmington weather history for previous 24 hours

 ConditionsComfort  
Time TempWeatherWind HumidityBarometerVisibility
6:53 PM
Thu, Mar 26
68 °FSunny.8 mph73%29.81 "Hg10 mi
5:53 PM70 °FSunny.14 mph68%29.83 "Hg10 mi
4:53 PM72 °FPassing clouds.16 mph66%29.85 "Hg10 mi
3:53 PM76 °FScattered clouds.15 mph50%29.85 "Hg10 mi
2:53 PM75 °FPartly sunny.18 mph47%29.88 "Hg10 mi
1:53 PM75 °FScattered clouds.16 mph54%29.89 "Hg10 mi
12:53 PM75 °FPassing clouds.20 mph58%29.92 "Hg10 mi
11:53 AM71 °FScattered clouds.9 mph81%29.95 "Hg10 mi
10:53 AM66 °FLight rain. Fog.9 mph93%29.98 "Hg2 mi
9:53 AM69 °FOvercast.14 mph81%29.97 "Hg10 mi
8:53 AM68 °FMostly cloudy.8 mph87%29.96 "Hg10 mi
7:53 AM67 °FLight rain. Partly cloudy.12 mph90%29.97 "Hg9 mi
6:53 AM67 °FOvercast.8 mph90%30.01 "Hg10 mi
5:53 AM66 °FRain. Fog.8 mph93%30.01 "Hg4 mi
5:04 AM66 °FThundershowers. Fog.8 mph96%30.03 "Hg4 mi
4:53 AM66 °FThundershowers. Fog.12 mph96%30.03 "Hg4 mi
3:53 AM67 °FOvercast.8 mph90%30.05 "Hg10 mi
2:53 AM68 °FMostly cloudy.10 mph87%30.09 "Hg10 mi
1:53 AM67 °FMostly cloudy.7 mph90%30.11 "Hg10 mi
12:53 AM68 °FMostly cloudy.7 mph84%30.13 "Hg10 mi
11:53 PM
Wed, Mar 25
67 °FPassing clouds.5 mph85%30.15 "Hg10 mi
10:53 PM67 °FOvercast.6 mph85%30.16 "Hg10 mi
9:53 PM68 °FPassing clouds.9 mph78%30.17 "Hg10 mi
8:53 PM67 °FClear.9 mph81%30.17 "Hg10 mi
7:53 PM67 °FScattered clouds.9 mph79%30.17 "Hg10 mi
Weather by CustomWeather, © 2015

See weather overviewHow to use our weather pages